Regional Weather Roundup
Issued by NWS

Home | Current Version | Previous Version | Graphics & Text | Print | Product List | Glossary Off
Versions: 1 2 3 4 5 6 7 8 9 10 11 12 13 14 15 16 17 18 19 20 21 22 23 24 25 26 27 28 29 30 31 32 33 34 35 36 37 38 39 40 41 42 43 44 45 46 47 48 49 50

869
ASUS43 KLSX 211057
RWRMO

WEATHER SUMMARY FOR MISSOURI
NATIONAL WEATHER SERVICE SPRINGFIELD MO
600 AM CDT MON MAY 21 2018

NOTE: "FAIR" INDICATES FEW OR NO CLOUDS BELOW 12,000 FEET WITH NO
       SIGNIFICANT WEATHER AND/OR OBSTRUCTIONS TO VISIBILITY.
       CURRENT SKY AND/OR WEATHER CONDITIONS ARE NOT AVAILABLE FOR
       CHILLICOTHE AND FARMINGTON.

MOZ001>031-035>038-043-044-053-054-211200-
...NORTHERN AND WESTERN MISSOURI...

CITY           SKY/WX    TMP DP  RH WIND       PRES   REMARKS
KANSAS CTY INT CLOUDY    59  59 100 W6        30.03S FOG
ST JOSEPH      CLOUDY    59  59 100 W3        30.02S FOG
CHILLICOTHE      N/A     65  64  97 CALM      30.01R

$$
MOZ066>068-077>081-088>096-101>105-211200-
...SOUTHWEST MISSOURI...

CITY           SKY/WX    TMP DP  RH WIND       PRES   REMARKS
SPRINGFIELD    CLOUDY    67  65  93 S6        30.04R FOG
JOPLIN         CLOUDY    63  62  97 NW3       30.06R FOG

$$
MOZ032>034-039>042-045>050-055>058-069>072-211200-
...CENTRAL MISSOURI...

CITY           SKY/WX    TMP DP  RH WIND       PRES   REMARKS
COLUMBIA       NOT AVBL
JEFFERSON CITY CLOUDY    66  64  93 CALM      30.03S
ROLLA          CLOUDY    63  62  97 S7        30.05S
SEDALIA        CLOUDY    66  66 100 SW6       30.03S FOG
WARRENSBURG    CLOUDY    63  61  94 CALM      30.03R FOG
OSAGE BEACH    CLOUDY    64  64 100 CALM      30.05R

$$
MOZ051-052-059>065-211200-
...EAST CENTRAL MISSOURI...

CITY           SKY/WX    TMP DP  RH WIND       PRES   REMARKS
ST LOUIS INTL  CLOUDY    65  65 100 S3        30.05S

$$
MOZ072>076-082>087-097>100-106>115-211200-
...SOUTH CENTRAL AND SOUTHEAST MISSOURI...

CITY           SKY/WX    TMP DP  RH WIND       PRES   REMARKS
CAPE GIRARDEAU FAIR      68  65  90 SE9       30.06F
POPLAR BLUFF   LGT RAIN  68  68 100 S13       30.05S
WEST PLAINS    CLOUDY    66  64  93 SE3       30.08R

$$




USA.gov is the U.S. government's official web portal to all federal, state and local government web resources and services.